Location: Newark
(46.9000°N, 28.3500°E)
Time: 20:25:03
(UTC+00:00)

Vanguard 2 Rocket - Visible Passes

Search period start: 19 August 2019 00:00
Search period end: 29 August 2019 00:00
Orbit: 553 x 3327 km, 32.9° (Epoch: 18 August)

Date Brightness Start Highest point End Pass type
(mag) Time Alt. Az. Time Alt. Az. Time Alt. Az.
19 Aug 9.9 00:30:54 17° S 00:38:40 27° SE 00:52:48 10° E visible
19 Aug 10.0 02:38:18 10° SW 02:53:11 47° SSE 03:11:50 10° E visible
19 Aug 10.0 23:34:37 16° SSE 23:38:47 19° SE 23:48:52 10° E visible
20 Aug 9.8 01:40:24 14° SW 01:52:07 41° SSE 02:09:44 10° E visible
20 Aug 10.3 22:38:19 10° SE 22:39:21 10° SE 22:41:02 10° ESE visible
21 Aug 9.6 00:44:07 21° S 00:51:33 33° SSE 01:07:08 10° E visible
21 Aug 9.7 23:47:48 22° SSE 23:51:30 25° SE 00:03:57 10° E visible
22 Aug 9.7 01:53:36 14° SW 02:05:21 46° SSE 02:23:31 10° E visible
22 Aug 10.0 22:51:30 16° SE 22:51:57 16° SE 22:59:46 10° E visible
23 Aug 9.4 00:57:17 24° SSW 01:04:38 39° SSE 01:21:06 10° E visible
24 Aug 9.4 00:00:59 27° S 00:04:26 31° SE 00:18:18 10° E visible
24 Aug 9.7 02:06:46 13° WSW 02:18:45 48° S 02:37:07 10° ESE visible
24 Aug 9.6 23:04:41 22° SE 23:04:45 22° SE 23:15:02 10° E visible
25 Aug 9.3 01:10:28 24° SW 01:17:55 43° SSE 01:34:50 10° E visible
25 Aug 10.1 22:08:23 12° ESE 22:08:23 12° ESE 22:10:34 10° ESE visible
26 Aug 9.1 00:14:11 32° S 00:17:36 36° SSE 00:32:16 10° E visible
26 Aug 9.6 02:19:58 11° WSW 02:32:16 49° S 02:50:34 10° ESE visible
26 Aug 9.3 23:17:54 28° SE 23:17:54 28° SE 23:29:27 10° E visible
27 Aug 9.2 01:23:42 24° SW 01:31:24 46° S 01:48:25 10° ESE visible
27 Aug 9.8 22:21:38 17° ESE 22:21:38 17° ESE 22:26:14 10° E visible
28 Aug 8.9 00:27:26 34° SSW 00:30:58 40° SSE 00:46:00 10° E visible
28 Aug 9.6 02:33:30 10° WSW 02:45:50 47° S 03:03:48 10° ESE visible
28 Aug 9.1 23:31:13 33° SSE 23:31:13 33° SSE 23:43:27 10° E visible
